Вернуться в каталог

STARLINK-32118

АктивенСвязьVLEO
NORAD 60280·PAYLOAD·🇺🇸 United States

Запущен Jul 28, 2024 с Cape Canaveral Space Force Station

Loading…

Ближайшие Пролёты (ближайшие 24 часа)

TLE

СвежийSource: CelesTrak SupGP

Эпоха: Sep 15, 2026, 02:19 UTC

1 60280C 24132C   26258.09701389 -.00032572  00000+0 -96217-3 0  2584
2 60280  53.1570 250.8987 0001344  89.6129 292.2364 15.34412189    12

Отслеживайте STARLINK-32118 в реальном времени с AllMySat

Download on the App Store